Time,TemperatureF,DewpointF,PressureIn,WindDirection,WindDirectionDegrees,WindSpeedMPH,WindSpeedGustMPH,Humidity,HourlyPrecipIn,Conditions,Clouds,dailyrainin,SoftwareType,DateUTC
2013-01-29 00:14:00,27.1,26.0,30.03,SE,133,0.0,1.0,97,0.00,,,0.00,weatherlink.com 1.10,2013-01-29 05:14:00,
2013-01-29 00:29:00,27.2,27.0,30.04,SE,133,0.0,1.0,97,0.00,,,0.00,weatherlink.com 1.10,2013-01-29 05:29:00,
2013-01-29 00:44:00,27.4,27.0,30.04,SE,133,2.0,2.0,97,0.00,,,0.00,weatherlink.com 1.10,2013-01-29 05:44:00,
2013-01-29 00:59:00,27.4,27.0,30.03,SE,133,0.0,4.0,97,0.00,,,0.00,weatherlink.com 1.10,2013-01-29 05:59:00,
2013-01-29 01:14:00,27.5,27.0,30.05,SE,133,1.0,3.0,97,0.00,,,0.00,weatherlink.com 1.10,2013-01-29 06:14:00,
2013-01-29 01:29:00,27.6,27.0,30.05,SE,133,2.0,3.0,97,0.00,,,0.00,weatherlink.com 1.10,2013-01-29 06:29:00,
2013-01-29 01:44:00,27.6,27.0,30.06,SE,133,0.0,2.0,97,0.00,,,0.00,weatherlink.com 1.10,2013-01-29 06:44:00,
2013-01-29 01:59:00,27.6,27.0,30.07,SE,133,0.0,2.0,97,0.00,,,0.00,weatherlink.com 1.10,2013-01-29 06:59:00,
2013-01-29 02:14:00,27.6,27.0,30.07,SE,133,0.0,2.0,97,0.00,,,0.00,weatherlink.com 1.10,2013-01-29 07:14:00,
2013-01-29 02:29:00,27.7,27.0,30.08,SE,133,0.0,0.0,97,0.00,,,0.00,weatherlink.com 1.10,2013-01-29 07:29:00,
2013-01-29 02:44:00,27.9,27.0,30.08,SE,133,0.0,1.0,97,0.00,,,0.00,weatherlink.com 1.10,2013-01-29 07:44:00,
2013-01-29 02:59:00,28.0,27.0,30.08,SE,133,0.0,0.0,97,0.00,,,0.00,weatherlink.com 1.10,2013-01-29 07:59:00,
2013-01-29 03:14:00,28.0,27.0,30.09,SE,133,0.0,1.0,97,0.00,,,0.00,weatherlink.com 1.10,2013-01-29 08:14:00,
2013-01-29 03:29:00,27.9,27.0,30.10,SE,133,0.0,1.0,97,0.00,,,0.00,weatherlink.com 1.10,2013-01-29 08:29:00,
2013-01-29 03:44:00,27.9,27.0,30.10,SE,133,0.0,1.0,97,0.00,,,0.00,weatherlink.com 1.10,2013-01-29 08:44:00,
2013-01-29 03:59:00,27.8,27.0,30.10,SE,133,0.0,0.0,97,0.00,,,0.00,weatherlink.com 1.10,2013-01-29 08:59:00,
2013-01-29 04:14:00,27.7,27.0,30.11,SE,133,0.0,1.0,97,0.00,,,0.00,weatherlink.com 1.10,2013-01-29 09:14:00,
2013-01-29 04:29:00,27.8,27.0,30.11,SE,133,0.0,1.0,97,0.00,,,0.00,weatherlink.com 1.10,2013-01-29 09:29:00,
2013-01-29 04:44:00,27.6,27.0,30.11,SE,133,0.0,3.0,97,0.00,,,0.00,weatherlink.com 1.10,2013-01-29 09:44:00,
2013-01-29 04:59:00,27.5,27.0,30.11,SSE,150,2.0,4.0,97,0.00,,,0.00,weatherlink.com 1.10,2013-01-29 09:59:00,
2013-01-29 05:14:00,27.7,27.0,30.12,SE,128,2.0,3.0,97,0.00,,,0.00,weatherlink.com 1.10,2013-01-29 10:14:00,
2013-01-29 05:29:00,27.8,27.0,30.12,SE,128,1.0,2.0,97,0.00,,,0.00,weatherlink.com 1.10,2013-01-29 10:29:00,
2013-01-29 05:44:00,27.8,27.0,30.11,SE,135,2.0,3.0,97,0.00,,,0.00,weatherlink.com 1.10,2013-01-29 10:44:00,
2013-01-29 05:59:00,27.8,27.0,30.13,SE,135,0.0,2.0,97,0.00,,,0.00,weatherlink.com 1.10,2013-01-29 10:59:00,
2013-01-29 06:14:00,27.8,27.0,30.14,SE,135,1.0,1.0,97,0.00,,,0.00,weatherlink.com 1.10,2013-01-29 11:14:00,
2013-01-29 06:29:00,27.9,27.0,30.14,SE,135,0.0,1.0,97,0.00,,,0.00,weatherlink.com 1.10,2013-01-29 11:29:00,
2013-01-29 06:44:00,28.0,27.0,30.14,SE,135,0.0,1.0,97,0.00,,,0.00,weatherlink.com 1.10,2013-01-29 11:44:00,
2013-01-29 06:59:00,28.1,27.0,30.16,SE,135,1.0,2.0,97,0.00,,,0.00,weatherlink.com 1.10,2013-01-29 11:59:00,
2013-01-29 07:14:00,28.1,27.0,30.16,SE,135,0.0,0.0,97,0.00,,,0.00,weatherlink.com 1.10,2013-01-29 12:14:00,
2013-01-29 07:30:00,28.1,27.0,30.16,SE,135,0.0,0.0,97,0.00,,,0.00,weatherlink.com 1.10,2013-01-29 12:30:00,
2013-01-29 08:00:00,28.9,28.0,30.16,SE,135,0.0,1.0,97,0.00,,,0.00,weatherlink.com 1.10,2013-01-29 13:00:00,
2013-01-29 08:14:00,29.1,28.0,30.16,SE,135,0.0,0.0,97,0.00,,,0.00,weatherlink.com 1.10,2013-01-29 13:14:00,
2013-01-29 08:29:00,29.2,29.0,30.16,SE,135,0.0,0.0,97,0.00,,,0.00,weatherlink.com 1.10,2013-01-29 13:29:00,
2013-01-29 08:45:00,29.6,29.0,30.16,SE,135,0.0,0.0,97,0.00,,,0.00,weatherlink.com 1.10,2013-01-29 13:45:00,
2013-01-29 08:59:00,29.9,29.0,30.16,SE,135,0.0,0.0,98,0.00,,,0.00,weatherlink.com 1.10,2013-01-29 13:59:00,
2013-01-29 09:14:00,30.3,30.0,30.17,SE,135,0.0,1.0,98,0.00,,,0.00,weatherlink.com 1.10,2013-01-29 14:14:00,
2013-01-29 09:30:00,30.2,30.0,30.17,SE,135,1.0,3.0,97,0.00,,,0.00,weatherlink.com 1.10,2013-01-29 14:30:00,
2013-01-29 09:44:00,30.9,30.0,30.18,SE,135,1.0,2.0,98,0.00,,,0.00,weatherlink.com 1.10,2013-01-29 14:44:00,
2013-01-29 10:00:00,31.5,31.0,30.18,SE,135,0.0,0.0,98,0.00,,,0.00,weatherlink.com 1.10,2013-01-29 15:00:00,
2013-01-29 10:15:00,31.9,31.0,30.18,SE,135,1.0,2.0,98,0.00,,,0.00,weatherlink.com 1.10,2013-01-29 15:15:00,
2013-01-29 10:30:00,31.6,31.0,30.17,SE,135,1.0,3.0,98,0.00,,,0.00,weatherlink.com 1.10,2013-01-29 15:30:00,
2013-01-29 10:45:00,31.8,31.0,30.18,SE,135,0.0,2.0,97,0.00,,,0.00,weatherlink.com 1.10,2013-01-29 15:45:00,
2013-01-29 11:00:00,32.0,31.0,30.18,SSE,150,1.0,2.0,97,0.00,,,0.00,weatherlink.com 1.10,2013-01-29 16:00:00,
2013-01-29 11:15:00,32.0,32.0,30.15,ESE,117,4.0,4.0,98,0.00,,,0.00,weatherlink.com 1.10,2013-01-29 16:15:00,
2013-01-29 11:30:00,32.4,32.0,30.16,SE,132,0.0,1.0,98,0.00,,,0.00,weatherlink.com 1.10,2013-01-29 16:30:00,
2013-01-29 11:45:00,32.4,32.0,30.15,SSE,155,1.0,3.0,98,0.00,,,0.00,weatherlink.com 1.10,2013-01-29 16:45:00,
2013-01-29 12:00:00,32.2,32.0,30.13,SSE,153,2.0,5.0,97,0.01,,,0.01,weatherlink.com 1.10,2013-01-29 17:00:00,
2013-01-29 12:15:00,32.7,32.0,30.13,SSE,153,0.0,2.0,98,0.02,,,0.02,weatherlink.com 1.10,2013-01-29 17:15:00,
2013-01-29 12:30:00,33.0,33.0,30.12,SSE,163,1.0,3.0,98,0.03,,,0.03,weatherlink.com 1.10,2013-01-29 17:30:00,
2013-01-29 12:45:00,33.0,33.0,30.11,SSE,165,0.0,2.0,98,0.04,,,0.04,weatherlink.com 1.10,2013-01-29 17:45:00,
2013-01-29 13:00:00,33.0,33.0,30.11,SE,134,0.0,5.0,98,0.05,,,0.06,weatherlink.com 1.10,2013-01-29 18:00:00,
2013-01-29 13:15:00,32.8,32.0,30.10,ESE,116,3.0,7.0,98,0.05,,,0.07,weatherlink.com 1.10,2013-01-29 18:15:00,
2013-01-29 13:30:00,32.8,32.0,30.08,SSE,149,3.0,5.0,98,0.04,,,0.07,weatherlink.com 1.10,2013-01-29 18:30:00,
2013-01-29 13:45:00,33.1,33.0,30.08,SE,138,0.0,1.0,98,0.03,,,0.07,weatherlink.com 1.10,2013-01-29 18:45:00,
2013-01-29 14:00:00,33.3,33.0,30.10,SW,220,0.0,2.0,98,0.02,,,0.08,weatherlink.com 1.10,2013-01-29 19:00:00,
2013-01-29 14:15:00,33.1,33.0,30.11,SSE,157,0.0,6.0,98,0.01,,,0.08,weatherlink.com 1.10,2013-01-29 19:15:00,
2013-01-29 14:30:00,33.0,33.0,30.10,SE,140,1.0,5.0,98,0.01,,,0.08,weatherlink.com 1.10,2013-01-29 19:30:00,
2013-01-29 14:45:00,32.8,32.0,30.09,SE,146,0.0,8.0,98,0.02,,,0.09,weatherlink.com 1.10,2013-01-29 19:45:00,
2013-01-29 15:00:00,32.9,32.0,30.05,SSE,157,2.0,4.0,98,0.01,,,0.09,weatherlink.com 1.10,2013-01-29 20:00:00,
2013-01-29 15:15:00,33.6,33.0,30.05,SSE,165,4.0,10.0,98,0.02,,,0.10,weatherlink.com 1.10,2013-01-29 20:15:00,
2013-01-29 15:30:00,34.4,34.0,30.08,SSE,161,2.0,4.0,98,0.02,,,0.10,weatherlink.com 1.10,2013-01-29 20:30:00,
2013-01-29 15:45:00,34.4,34.0,30.06,SSE,157,1.0,8.0,98,0.02,,,0.11,weatherlink.com 1.10,2013-01-29 20:45:00,
2013-01-29 16:00:00,34.3,34.0,30.06,South,180,2.0,4.0,98,0.03,,,0.12,weatherlink.com 1.10,2013-01-29 21:00:00,
2013-01-29 16:15:00,34.2,34.0,30.05,SE,146,0.0,4.0,98,0.02,,,0.12,weatherlink.com 1.10,2013-01-29 21:15:00,
2013-01-29 16:30:00,34.3,34.0,30.05,ESE,121,2.0,10.0,98,0.03,,,0.13,weatherlink.com 1.10,2013-01-29 21:30:00,
2013-01-29 16:45:00,34.4,34.0,30.05,SW,223,2.0,5.0,98,0.02,,,0.13,weatherlink.com 1.10,2013-01-29 21:45:00,
2013-01-29 17:00:00,34.3,34.0,30.05,SSE,159,1.0,6.0,98,0.02,,,0.14,weatherlink.com 1.10,2013-01-29 22:00:00,
2013-01-29 17:15:00,33.9,33.0,30.05,SSW,201,0.0,8.0,97,0.02,,,0.14,weatherlink.com 1.10,2013-01-29 22:15:00,
2013-01-29 17:30:00,33.5,33.0,30.04,SW,225,0.0,4.0,97,0.02,,,0.15,weatherlink.com 1.10,2013-01-29 22:30:00,
2013-01-29 18:00:00,33.5,33.0,30.05,SSE,166,2.0,5.0,98,0.02,,,0.16,weatherlink.com 1.10,2013-01-29 23:00:00,
2013-01-29 18:15:00,33.3,33.0,30.04,SSW,203,2.0,11.0,98,0.04,,,0.18,weatherlink.com 1.10,2013-01-29 23:15:00,
2013-01-29 18:30:00,33.2,33.0,30.03,SSW,209,3.0,6.0,98,0.06,,,0.21,weatherlink.com 1.10,2013-01-29 23:30:00,
2013-01-29 18:45:00,33.3,33.0,30.03,South,186,3.0,3.0,98,0.08,,,0.24,weatherlink.com 1.10,2013-01-29 23:45:00,
2013-01-29 19:00:00,33.6,33.0,30.03,SE,132,1.0,6.0,98,0.08,,,0.24,weatherlink.com 1.10,2013-01-30 00:00:00,
2013-01-29 19:15:00,33.7,33.0,30.03,SSE,155,0.0,5.0,98,0.07,,,0.25,weatherlink.com 1.10,2013-01-30 00:15:00,
2013-01-29 19:31:00,34.0,34.0,30.04,SSW,196,1.0,4.0,98,0.04,,,0.26,weatherlink.com 1.10,2013-01-30 00:31:00,
2013-01-29 19:45:00,34.2,34.0,30.03,SSE,148,0.0,3.0,98,0.02,,,0.26,weatherlink.com 1.10,2013-01-30 00:45:00,
2013-01-29 20:01:00,34.7,34.0,30.03,SW,221,0.0,4.0,98,0.03,,,0.27,weatherlink.com 1.10,2013-01-30 01:01:00,
2013-01-29 20:16:00,34.5,34.0,30.02,SSW,213,1.0,5.0,98,0.03,,,0.28,weatherlink.com 1.10,2013-01-30 01:16:00,
2013-01-29 20:31:00,34.3,34.0,30.01,SSW,200,2.0,5.0,98,0.02,,,0.28,weatherlink.com 1.10,2013-01-30 01:31:00,
2013-01-29 20:45:00,34.2,34.0,30.00,South,187,2.0,7.0,98,0.03,,,0.29,weatherlink.com 1.10,2013-01-30 01:45:00,
2013-01-29 21:00:00,34.1,34.0,30.01,SSE,163,3.0,4.0,98,0.03,,,0.30,weatherlink.com 1.10,2013-01-30 02:00:00,
2013-01-29 21:15:00,34.3,34.0,30.01,SSE,157,1.0,3.0,98,0.03,,,0.31,weatherlink.com 1.10,2013-01-30 02:15:00,
2013-01-29 21:30:00,34.3,34.0,30.02,SW,224,0.0,3.0,98,0.04,,,0.32,weatherlink.com 1.10,2013-01-30 02:30:00,
2013-01-29 21:45:00,34.6,34.0,30.01,SE,127,1.0,3.0,98,0.05,,,0.34,weatherlink.com 1.10,2013-01-30 02:45:00,
2013-01-29 22:00:00,34.8,34.0,30.00,South,169,2.0,3.0,98,0.06,,,0.36,weatherlink.com 1.10,2013-01-30 03:00:00,
2013-01-29 22:16:00,35.3,35.0,30.00,SSE,155,0.0,6.0,98,0.09,,,0.40,weatherlink.com 1.10,2013-01-30 03:16:00,
2013-01-29 22:30:00,35.4,35.0,30.00,South,177,0.0,3.0,98,0.11,,,0.43,weatherlink.com 1.10,2013-01-30 03:30:00,
2013-01-29 22:45:00,35.3,35.0,30.01,SSW,195,1.0,5.0,98,0.11,,,0.45,weatherlink.com 1.10,2013-01-30 03:45:00,
2013-01-29 23:00:00,35.3,35.0,30.00,SSE,153,1.0,6.0,98,0.10,,,0.46,weatherlink.com 1.10,2013-01-30 04:00:00,
2013-01-29 23:15:00,35.2,35.0,30.01,South,180,2.0,5.0,98,0.09,,,0.49,weatherlink.com 1.10,2013-01-30 04:15:00,
2013-01-29 23:30:00,35.0,35.0,30.00,SSW,201,0.0,6.0,98,0.07,,,0.51,weatherlink.com 1.10,2013-01-30 04:30:00,
2013-01-29 23:45:00,34.9,34.0,30.00,SSE,151,5.0,5.0,98,0.07,,,0.52,weatherlink.com 1.10,2013-01-30 04:45:00,